| time (UTC) | temp F | wind direction | speed MPH | gust MPH | rain 1hr in | rain 24hr in | rain mn in | humidity % | barometer mb |
| 20260906043143 | 50 | 307 | 2.0 | 6.0 | 0.00 | 0.06 | 0.00 | 91 | 1003.7 |
| 20260906042145 | 50 | 348 | 2.0 | 4.0 | 0.00 | 0.06 | 0.00 | 91 | 1003.7 |
| 20260906041147 | 50 | 307 | 4.0 | 8.0 | 0.00 | 0.06 | 0.00 | 90 | 1003.7 |
| 20260906040147 | 49 | 309 | 3.0 | 9.0 | 0.00 | 0.06 | 0.00 | 90 | 1003.6 |
| 20260906035146 | 49 | 323 | 2.0 | 5.0 | 0.00 | 0.06 | 0.00 | 90 | 1003.5 |
| 20260906034144 | 49 | 330 | 2.0 | 6.0 | 0.00 | 0.06 | 0.00 | 90 | 1003.4 |
| 20260906033207 | 49 | 309 | 2.0 | 6.0 | 0.00 | 0.06 | 0.00 | 91 | 1003.3 |
| 20260906032144 | 49 | 310 | 4.0 | 8.0 | 0.00 | 0.06 | 0.00 | 91 | 1003.2 |
| 20260906031145 | 49 | 320 | 3.0 | 6.0 | 0.00 | 0.06 | 0.00 | 91 | 1003.1 |
| 20260906030143 | 49 | 328 | 2.0 | 4.0 | 0.00 | 0.06 | 0.00 | 90 | 1003.1 |
| 20260906025208 | 49 | 312 | 3.0 | 7.0 | 0.00 | 0.06 | 0.00 | 91 | 1003.0 |
| 20260906024144 | 50 | 324 | 3.0 | 6.0 | 0.00 | 0.06 | 0.00 | 90 | 1002.8 |
| 20260906023145 | 50 | 304 | 3.0 | 8.0 | 0.00 | 0.06 | 0.00 | 91 | 1002.8 |
| 20260906022140 | 50 | 351 | 2.0 | 4.0 | 0.00 | 0.06 | 0.00 | 91 | 1002.7 |
| 20260906021137 | 50 | 317 | 2.0 | 5.0 | 0.00 | 0.06 | 0.00 | 90 | 1002.6 |
| 20260906020139 | 50 | 341 | 2.0 | 4.0 | 0.00 | 0.06 | 0.00 | 90 | 1002.5 |
| 20260906015135 | 50 | 318 | 2.0 | 4.0 | 0.00 | 0.06 | 0.00 | 90 | 1002.4 |
| 20260906014134 | 50 | 299 | 2.0 | 4.0 | 0.00 | 0.06 | 0.00 | 90 | 1002.4 |
| 20260906013134 | 50 | 346 | 3.0 | 5.0 | 0.00 | 0.06 | 0.00 | 91 | 1002.4 |
| 20260906012136 | 50 | 353 | 1.0 | 2.0 | 0.00 | 0.06 | 0.00 | 91 | 1002.3 |
| 20260906011141 | 50 | 9 | 1.0 | 2.0 | 0.00 | 0.06 | 0.00 | 91 | 1002.2 |
| 20260906010117 | 50 | 356 | 2.0 | 5.0 | 0.00 | 0.06 | 0.00 | 91 | 1002.1 |
| 20260906005133 | 51 | 12 | 1.0 | 3.0 | 0.00 | 0.06 | 0.00 | 90 | 1001.5 |
| 20260906004154 | 51 | 310 | 2.0 | 4.0 | 0.00 | 0.06 | 0.00 | 90 | 1001.4 |
| 20260906003137 | 51 | 16 | 1.0 | 3.0 | 0.00 | 0.06 | 0.00 | 90 | 1001.4 |
| 20260906002140 | 51 | 343 | 2.0 | 4.0 | 0.00 | 0.06 | 0.00 | 90 | 1001.2 |
| 20260906001141 | 51 | 339 | 2.0 | 3.0 | 0.00 | 0.06 | 0.00 | 90 | 1001.2 |
| 20260906000137 | 51 | 341 | 2.0 | 3.0 | 0.00 | 0.06 | 0.00 | 90 | 1001.1 |
| 20260905235135 | 51 | 348 | 1.0 | 3.0 | 0.00 | 0.06 | 0.00 | 89 | 1001.0 |
| 20260905234136 | 52 | 310 | 2.0 | 4.0 | 0.00 | 0.06 | 0.00 | 90 | 1000.9 |
| 20260905233137 | 52 | 306 | 2.0 | 6.0 | 0.00 | 0.06 | 0.00 | 89 | 1000.9 |
| 20260905232218 | 52 | 340 | 3.0 | 7.0 | 0.00 | 0.06 | 0.00 | 90 | 1000.8 |
| 20260905231133 | 52 | 314 | 2.0 | 5.0 | 0.00 | 0.06 | 0.00 | 89 | 1000.8 |
| 20260905230141 | 52 | 299 | 2.0 | 3.0 | 0.00 | 0.06 | 0.00 | 89 | 1000.8 |
| 20260905225159 | 53 | 351 | 1.0 | 2.0 | 0.00 | 0.06 | 0.00 | 88 | 1000.7 |
| 20260905224140 | 53 | 325 | 2.0 | 4.0 | 0.00 | 0.06 | 0.00 | 89 | 1000.6 |
| 20260905223136 | 53 | 337 | 1.0 | 4.0 | 0.00 | 0.06 | 0.00 | 89 | 1000.5 |
| 20260905222155 | 53 | 331 | 2.0 | 4.0 | 0.00 | 0.06 | 0.00 | 89 | 1000.4 |
| 20260905221138 | 53 | 341 | 1.0 | 3.0 | 0.00 | 0.06 | 0.00 | 89 | 1000.5 |
| 20260905220138 | 53 | 320 | 2.0 | 3.0 | 0.00 | 0.06 | 0.00 | 89 | 1000.3 |
| 20260905215135 | 53 | 310 | 1.0 | 2.0 | 0.00 | 0.06 | 0.00 | 89 | 1000.3 |
| 20260905214202 | 54 | 11 | 1.0 | 3.0 | 0.00 | 0.06 | 0.00 | 89 | 1000.3 |
| 20260905213142 | 54 | 325 | 2.0 | 4.0 | 0.00 | 0.06 | 0.00 | 88 | 1000.2 |
| 20260905212136 | 54 | 334 | 1.0 | 3.0 | 0.00 | 0.06 | 0.00 | 88 | 1000.2 |
| 20260905211138 | 54 | 354 | 2.0 | 3.0 | 0.00 | 0.06 | 0.00 | 87 | 1000.2 |
| 20260905210116 | 55 | 332 | 1.0 | 3.0 | 0.00 | 0.06 | 0.00 | 86 | 1000.0 |
| 20260905205134 | 57 | 314 | 2.0 | 6.0 | 0.00 | 0.06 | 0.06 | 79 | 999.3 |
| 20260905204134 | 57 | 308 | 1.0 | 2.0 | 0.00 | 0.06 | 0.06 | 78 | 999.3 |
| 20260905203139 | 58 | 314 | 3.0 | 5.0 | 0.00 | 0.06 | 0.06 | 77 | 999.3 |
| 20260905202137 | 58 | 314 | 2.0 | 4.0 | 0.00 | 0.06 | 0.06 | 76 | 999.1 |
| 20260905201139 | 58 | 305 | 3.0 | 6.0 | 0.00 | 0.06 | 0.06 | 75 | 999.1 |
| 20260905200138 | 58 | 320 | 2.0 | 4.0 | 0.00 | 0.06 | 0.06 | 74 | 999.1 |
| 20260905195157 | 59 | 324 | 2.0 | 4.0 | 0.00 | 0.06 | 0.06 | 73 | 998.9 |
| 20260905194140 | 59 | 331 | 1.0 | 2.0 | 0.00 | 0.06 | 0.06 | 72 | 998.9 |
| 20260905193134 | 59 | 331 | 3.0 | 5.0 | 0.00 | 0.06 | 0.06 | 71 | 998.9 |
| 20260905192136 | 59 | 318 | 2.0 | 4.0 | 0.00 | 0.06 | 0.06 | 71 | 998.9 |
| 20260905191141 | 59 | 309 | 1.0 | 3.0 | 0.00 | 0.06 | 0.06 | 71 | 998.8 |
| 20260905190139 | 59 | 298 | 3.0 | 7.0 | 0.00 | 0.06 | 0.06 | 70 | 998.8 |
| 20260905185138 | 60 | 297 | 3.0 | 6.0 | 0.00 | 0.06 | 0.06 | 70 | 998.7 |
| 20260905184139 | 60 | 311 | 2.0 | 4.0 | 0.00 | 0.06 | 0.06 | 69 | 998.7 |
| 20260905183138 | 60 | 308 | 2.0 | 4.0 | 0.00 | 0.06 | 0.06 | 68 | 998.7 |
| 20260905182154 | 60 | 326 | 2.0 | 4.0 | 0.00 | 0.06 | 0.06 | 69 | 998.7 |
| 20260905181154 | 60 | 299 | 2.0 | 4.0 | 0.00 | 0.06 | 0.06 | 71 | 998.6 |
| 20260905180139 | 60 | 306 | 2.0 | 4.0 | 0.00 | 0.06 | 0.06 | 71 | 998.5 |
| 20260905175138 | 60 | 288 | 2.0 | 4.0 | 0.00 | 0.06 | 0.06 | 70 | 998.5 |
| 20260905174202 | 60 | 325 | 1.0 | 2.0 | 0.00 | 0.06 | 0.06 | 68 | 998.5 |
| 20260905173142 | 60 | 301 | 2.0 | 3.0 | 0.00 | 0.06 | 0.06 | 68 | 998.4 |
| 20260905172158 | 60 | 295 | 1.0 | 2.0 | 0.00 | 0.06 | 0.06 | 67 | 998.3 |
| 20260905171154 | 60 | 341 | 1.0 | 3.0 | 0.00 | 0.06 | 0.06 | 67 | 998.2 |
| 20260905170136 | 60 | 320 | 2.0 | 3.0 | 0.00 | 0.06 | 0.06 | 66 | 998.1 |
| 20260905165137 | 61 | 296 | 1.0 | 3.0 | 0.00 | 0.06 | 0.06 | 66 | 997.4 |
| 20260905164157 | 61 | 18 | 1.0 | 1.0 | 0.00 | 0.06 | 0.06 | 69 | 997.3 |
| 20260905163135 | 61 | 75 | 0.0 | 1.0 | 0.00 | 0.06 | 0.06 | 71 | 997.3 |
| 20260905162140 | 61 | 0 | 0.0 | 1.0 | 0.00 | 0.06 | 0.06 | 69 | 997.3 |
| 20260905161139 | 61 | 6 | 1.0 | 1.0 | 0.00 | 0.06 | 0.06 | 68 | 997.3 |
| 20260905160139 | 61 | 351 | 1.0 | 1.0 | 0.00 | 0.06 | 0.06 | 68 | 997.3 |
| 20260905155132 | 62 | 40 | 1.0 | 1.0 | 0.00 | 0.06 | 0.06 | 68 | 997.1 |
| 20260905154133 | 62 | 344 | 0.0 | 1.0 | 0.00 | 0.06 | 0.06 | 70 | 997.2 |
| 20260905153134 | 61 | 358 | 1.0 | 1.0 | 0.00 | 0.06 | 0.06 | 67 | 997.0 |
| 20260905152141 | 61 | 58 | 1.0 | 1.0 | 0.00 | 0.06 | 0.06 | 65 | 997.1 |
| 20260905151140 | 61 | 322 | 2.0 | 4.0 | 0.00 | 0.06 | 0.06 | 67 | 997.0 |
| 20260905150139 | 61 | 160 | 2.0 | 7.0 | 0.00 | 0.05 | 0.05 | 72 | 997.0 |
| 20260905145141 | 61 | 234 | 1.0 | 3.0 | 0.00 | 0.05 | 0.05 | 70 | 996.8 |
| 20260905144135 | 61 | 201 | 3.0 | 4.0 | 0.00 | 0.05 | 0.05 | 69 | 996.7 |
| 20260905143140 | 61 | 205 | 3.0 | 5.0 | 0.01 | 0.05 | 0.05 | 72 | 996.7 |
| 20260905142135 | 60 | 190 | 2.0 | 3.0 | 0.02 | 0.05 | 0.05 | 69 | 996.6 |
| 20260905141139 | 59 | 188 | 2.0 | 3.0 | 0.02 | 0.05 | 0.05 | 74 | 996.6 |
| 20260905140138 | 59 | 197 | 3.0 | 5.0 | 0.02 | 0.06 | 0.05 | 77 | 996.5 |
| 20260905135134 | 59 | 151 | 2.0 | 4.0 | 0.03 | 0.06 | 0.05 | 75 | 996.5 |
| 20260905134138 | 62 | 201 | 4.0 | 5.0 | 0.05 | 0.06 | 0.05 | 68 | 996.6 |
| 20260905133139 | 64 | 38 | 1.0 | 4.0 | 0.04 | 0.07 | 0.04 | 66 | 996.6 |
| 20260905132137 | 64 | 36 | 1.0 | 3.0 | 0.04 | 0.07 | 0.04 | 63 | 996.6 |
| 20260905131153 | 64 | 298 | 2.0 | 3.0 | 0.04 | 0.07 | 0.04 | 66 | 996.6 |
| 20260905130116 | 62 | 161 | 2.0 | 4.0 | 0.03 | 0.07 | 0.03 | 62 | 996.3 |
| 20260905125202 | 60 | 183 | 1.0 | 4.0 | 0.03 | 0.06 | 0.03 | 76 | 996.2 |
| 20260905124139 | 61 | 108 | 1.0 | 2.0 | 0.00 | 0.04 | 0.00 | 70 | 996.2 |
| 20260905123133 | 62 | 48 | 1.0 | 2.0 | 0.00 | 0.04 | 0.00 | 68 | 996.2 |
| 20260905122135 | 64 | 255 | 1.0 | 2.0 | 0.00 | 0.04 | 0.00 | 61 | 996.1 |
| 20260905121137 | 65 | 288 | 3.0 | 6.0 | 0.00 | 0.04 | 0.00 | 61 | 996.0 |
| 20260905120138 | 64 | 205 | 4.0 | 9.0 | 0.00 | 0.04 | 0.00 | 63 | 995.8 |
| 20260905115158 | 63 | 181 | 3.0 | 8.0 | 0.00 | 0.04 | 0.00 | 66 | 995.8 |
| 20260905114135 | 62 | 195 | 4.0 | 6.0 | 0.00 | 0.04 | 0.00 | 69 | 995.8 |
| 20260905113138 | 62 | 200 | 4.0 | 8.0 | 0.00 | 0.04 | 0.00 | 70 | 995.6 |
| 20260905112137 | 62 | 202 | 5.0 | 7.0 | 0.00 | 0.04 | 0.00 | 67 | 995.5 |
| 20260905111138 | 62 | 156 | 2.0 | 4.0 | 0.00 | 0.04 | 0.00 | 68 | 995.5 |
| 20260905110136 | 62 | 199 | 2.0 | 5.0 | 0.00 | 0.04 | 0.00 | 68 | 995.5 |
| 20260905105138 | 62 | 193 | 1.0 | 2.0 | 0.00 | 0.04 | 0.00 | 69 | 995.5 |
| 20260905104135 | 66 | 197 | 2.0 | 3.0 | 0.00 | 0.04 | 0.00 | 55 | 995.5 |
| 20260905103157 | 65 | 26 | 1.0 | 2.0 | 0.00 | 0.04 | 0.00 | 57 | 995.4 |
| 20260905102135 | 65 | 317 | 1.0 | 3.0 | 0.00 | 0.04 | 0.00 | 58 | 995.3 |
| 20260905101141 | 64 | 8 | 1.0 | 2.0 | 0.00 | 0.04 | 0.00 | 60 | 995.3 |
| 20260905100137 | 64 | 345 | 1.0 | 2.0 | 0.00 | 0.04 | 0.00 | 60 | 995.3 |
| 20260905095134 | 65 | 25 | 1.0 | 3.0 | 0.00 | 0.04 | 0.00 | 59 | 995.3 |
| 20260905094201 | 65 | 358 | 1.0 | 2.0 | 0.00 | 0.04 | 0.00 | 59 | 995.3 |
| 20260905093137 | 65 | 302 | 2.0 | 3.0 | 0.00 | 0.04 | 0.00 | 59 | 995.2 |
| 20260905092132 | 64 | 302 | 2.0 | 4.0 | 0.00 | 0.04 | 0.00 | 64 | 995.2 |
| 20260905091136 | 65 | 241 | 2.0 | 4.0 | 0.00 | 0.04 | 0.00 | 63 | 995.1 |
| 20260905090117 | 65 | 243 | 1.0 | 2.0 | 0.00 | 0.04 | 0.00 | 63 | 995.1 |
| 20260905085139 | 61 | 351 | 1.0 | 2.0 | 0.00 | 0.04 | 0.00 | 71 | 994.8 |
| 20260905084136 | 59 | 192 | 1.0 | 1.0 | 0.00 | 0.04 | 0.00 | 76 | 994.7 |
| 20260905083138 | 59 | 36 | 1.0 | 1.0 | 0.00 | 0.04 | 0.00 | 79 | 994.8 |
| 20260905082140 | 58 | 349 | 1.0 | 2.0 | 0.00 | 0.04 | 0.00 | 79 | 994.7 |
| 20260905081136 | 58 | 311 | 1.0 | 2.0 | 0.00 | 0.04 | 0.00 | 83 | 994.6 |
| 20260905080138 | 57 | 326 | 1.0 | 2.0 | 0.00 | 0.04 | 0.00 | 86 | 994.6 |
| 20260905075140 | 56 | 179 | 1.0 | 2.0 | 0.00 | 0.04 | 0.00 | 86 | 994.5 |
| 20260905074203 | 56 | 213 | 1.0 | 2.0 | 0.00 | 0.04 | 0.00 | 89 | 994.5 |
| 20260905073138 | 55 | 215 | 1.0 | 2.0 | 0.00 | 0.04 | 0.00 | 89 | 994.5 |
| 20260905072133 | 55 | 271 | 0.0 | 1.0 | 0.00 | 0.04 | 0.00 | 90 | 994.3 |
| 20260905071139 | 55 | 289 | 1.0 | 1.0 | 0.00 | 0.04 | 0.00 | 92 | 994.3 |
| 20260905070143 | 55 | 330 | 1.0 | 2.0 | 0.00 | 0.04 | 0.00 | 92 | 994.3 |
| 20260905065138 | 54 | 335 | 0.0 | 1.0 | 0.00 | 0.04 | 0.00 | 93 | 994.3 |
| 20260905064135 | 53 | 16 | 1.0 | 1.0 | 0.00 | 0.04 | 0.00 | 93 | 994.3 |
| 20260905063135 | 53 | 31 | 1.0 | 3.0 | 0.00 | 0.04 | 0.00 | 94 | 994.2 |
| 20260905062142 | 52 | 24 | 1.0 | 2.0 | 0.00 | 0.04 | 0.00 | 96 | 994.3 |
| 20260905061154 | 52 | 46 | 1.0 | 3.0 | 0.00 | 0.04 | 0.00 | 97 | 994.3 |
| 20260905060139 | 52 | 88 | 0.0 | 1.0 | 0.00 | 0.04 | 0.00 | 98 | 994.3 |
| 20260905055143 | 51 | 40 | 2.0 | 4.0 | 0.00 | 0.04 | 0.00 | 98 | 994.2 |
| 20260905054137 | 51 | 22 | 3.0 | 5.0 | 0.00 | 0.04 | 0.00 | 99 | 994.3 |
| 20260905053135 | 50 | 60 | 1.0 | 4.0 | 0.00 | 0.04 | 0.00 | 100 | 994.2 |
| 20260905052140 | 51 | 334 | 0.0 | 1.0 | 0.00 | 0.04 | 0.00 | 100 | 994.3 |
| 20260905051137 | 50 | 43 | 2.0 | 2.0 | 0.00 | 0.04 | 0.00 | 100 | 994.3 |
| 20260905050117 | 51 | 101 | 0.0 | 1.0 | 0.00 | 0.04 | 0.00 | 100 | 994.2 |
| 20260905045158 | 50 | 24 | 0.0 | 1.0 | 0.00 | 0.04 | 0.00 | 100 | 994.3 |
| 20260905044137 | 50 | 227 | 0.0 | 0.0 | 0.00 | 0.04 | 0.00 | 100 | 994.3 |